STARLINK-3874 (52365 NORAD) Tracking and Keplerian Element Data

This shows tracking and keplerian element data for the satellite.

Feedback or suggestion? Click here.




ElementValue
Catalog52365
NameSTARLINK-3874
Epoch Orbit130
Epoch Day167.08334491
Epoch Year2022
RAAN202.6763
Inclination53.2139
Eccentricity0.0002831
Argument of Perigee10.2753
Mean Anonmoly290.9806
Mean Motion15.73201507
Decay Rate0.00054813
L11 52365U 22045AL 22167.08334491 .00054813 00000+0 39234-3 0 9998
L22 52365 53.2139 202.6763 0002831 10.2753 290.9806 15.73201507 1303

Live tracking and technical data element details for STARLINK-3874 (NORAD 52365). STARLINK-3874 can be tracked NOW for your location showing map with azimuth and elevation plus other details from your city location.

Track the satellite on the map from your city or location and see movement details for azimuth, elevation, latitude, longitude, range, height, and movement on the map or in text.







IsCatalogInMostPopularTable: catalog: 52365, numindb: 8
Update: records affected: 1



GetName: 52365 STARLINK-3874

Hit Count: updated at: Mon, 27 Jun 2022 05:38:54 GMT